Weather History for KTTD - April, 2013

Change the Weather History Date:

Friday, April 26, 2013

  Actual Average Record
Temperature  
Mean Temperature 61 °F 53 °F  
Max Temperature 79 °F 64 °F 89 °F (1987)
Min Temperature 42 °F 42 °F 32 °F (1948)
Degree Days  
Heating Degree Days 4 12  
Month to date heating degree days 341 360  
Cooling Degree Days 0 0  
Month to date cooling degree days 0 0  
Growing Degree Days 11 (Base 50)    
Moisture  
Dew Point 42 °F    
Average Humidity 56    
Maximum Humidity 92    
Minimum Humidity 19    
Precipitation  
Precipitation 0.00 in 0.12 in 1.70 in (1989)
Month to date precipitation 3.23 3.39  
Year to date precipitation 9.73 19.30  
Snow  
Snow 0.00 in - - ()
Month to date snowfall 0.0  
Snow Depth 0.00 in    
Sea Level Pressure  
Sea Level Pressure 30.20 in    
Wind  
Wind Speed 1 mph (WSW)    
Max Wind Speed 8 mph    
Max Gust Speed 12 mph    
Visibility 10 miles    
Events      
T = Trace of Precipitation, MM = Missing Value Source: NWS Daily Summary

Daily Weather History Graph

Daily Weather History Graph

Search for Another Location

Airport or City:

Trip Planner

Search our weather history database for the weather conditions in past years. The results will help you decide how hot, cold, wet, or windy it might be!

Date:

Astronomy

Apr. 26, 2013 Rise Set
Actual Time 6:04 AM PDT 8:10 PM PDT
Civil Twilight 5:32 AM PDT 8:42 PM PDT
Nautical Twilight 4:53 AM PDT 9:22 PM PDT
Astronomical Twilight 4:09 AM PDT 10:07 PM PDT
Moon 9:43 PM PDT (4/26) 6:33 AM PDT (4/26)
Length of Visible Light 15h 10m
Length of Day
14h 05m
Full, 99% of the Moon is Illuminated
Apr 26
Full
May 2
Last Quarter
May 9
New
May 17
First Quarter
May 24
Full

Hourly Weather History & Observations

Time (PDT) Temp. Dew Point Humidity Pressure Visibility Wind Dir Wind Speed Gust Speed Precip Events Conditions
12:53 AM 54.0 °F 44.1 °F 69% 30.17 in 10.0 mi Calm Calm - N/A   Clear
1:53 AM 53.1 °F 44.1 °F 71% 30.17 in 10.0 mi Calm Calm - N/A   Clear
2:53 AM 48.0 °F 44.1 °F 86% 30.18 in 10.0 mi Calm Calm - N/A   Clear
3:53 AM 48.0 °F 43.0 °F 83% 30.19 in 10.0 mi Calm Calm - N/A   Clear
4:53 AM 45.0 °F 42.1 °F 90% 30.20 in 10.0 mi Calm Calm - N/A   Clear
5:53 AM 44.1 °F 41.0 °F 89% 30.21 in 10.0 mi Calm Calm - N/A   Clear
6:53 AM 43.0 °F 39.9 °F 89% 30.22 in 10.0 mi Calm Calm - N/A   Clear
7:53 AM 50.0 °F 45.0 °F 83% 30.24 in 10.0 mi Calm Calm - N/A   Clear
8:53 AM 52.0 °F 46.0 °F 80% 30.24 in 10.0 mi Calm Calm - N/A   Clear
9:53 AM 57.0 °F 46.0 °F 67% 30.25 in 10.0 mi NW 4.6 mph - N/A   Clear
10:53 AM 59.0 °F 46.9 °F 64% 30.25 in 10.0 mi Calm Calm - N/A   Clear
11:53 AM 64.9 °F 48.0 °F 54% 30.23 in 10.0 mi Calm Calm - N/A   Clear
12:53 PM 69.1 °F 44.1 °F 40% 30.22 in 10.0 mi Variable 3.5 mph - N/A   Clear
1:53 PM 73.0 °F 36.0 °F 26% 30.22 in 10.0 mi Variable 5.8 mph - N/A   Clear
2:53 PM 75.0 °F 41.0 °F 29% 30.21 in 10.0 mi Variable 3.5 mph - N/A   Clear
3:53 PM 75.9 °F 35.1 °F 23% 30.19 in 10.0 mi WSW 5.8 mph - N/A   Clear
4:53 PM 78.1 °F 34.0 °F 20% 30.18 in 10.0 mi Variable 3.5 mph - N/A   Clear
5:53 PM 79.0 °F 37.0 °F 22% 30.17 in 10.0 mi Variable 3.5 mph - N/A   Clear
6:53 PM 77.0 °F 37.9 °F 24% 30.16 in 10.0 mi Calm Calm - N/A   Clear
7:53 PM 72.0 °F 44.1 °F 37% 30.16 in 10.0 mi Calm Calm - N/A   Clear
8:53 PM 64.0 °F 46.0 °F 52% 30.18 in 10.0 mi Calm Calm - N/A   Clear
9:53 PM 61.0 °F 46.0 °F 58% 30.19 in 10.0 mi SW 4.6 mph - N/A   Clear
10:53 PM 57.0 °F 43.0 °F 59% 30.20 in 10.0 mi Calm Calm - N/A   Clear
11:53 PM 55.0 °F 43.0 °F 64% 30.21 in 10.0 mi Calm Calm - N/A   Clear